Regional Weather Roundup
Issued by NWS Sioux Falls, SD

Home | Current Version | Previous Version | Text Only | Print | Product List | Glossary Off
Versions: 1 2 3 4 5 6 7 8 9 10 11 12 13 14 15 16 17 18 19 20 21 22 23 24 25 26 27 28 29 30 31 32 33 34 35 36 37 38 39 40 41 42 43 44 45 46 47 48 49 50

000
ASUS43 KFSD 251602
RWRFSD

WEATHER ROUNDUP FOR SE SOUTH DAKOTA/SW MINNESOTA/NW IOWA
NATIONAL WEATHER SERVICE SIOUX FALLS SD
1000 AM CST SUN JAN 25 2015

NOTE: "FAIR" INDICATES FEW OR NO CLOUDS BELOW 12,000 FEET WITH NO
SIGNIFICANT WEATHER AND OR OBSTRUCTIONS TO VISIBILITY.


SDZ038>040-050-052>070-251700-
SOUTHEAST SOUTH DAKOTA

CITY           SKY/WX    TMP DP  RH WIND       PRES   REMARKS
CHAMBERLAIN    NOT AVBL
HURON          CLOUDY    30  28  92 N7        30.02R WCI  23
MADISON        CLOUDY    30  30 100 N7        29.97R WCI  23
MITCHELL       CLOUDY    32  30  92 NW8       30.02R WCI  25
SIOUX FALLS    CLOUDY    33  31  92 N7        29.97R WCI  27
WINNER         CLOUDY    38  31  76 NW15      30.03R
YANKTON        CLOUDY    34  30  86 NW13      30.00R WCI  25
$$

MNZ071-072-080-081-089-090-097-098-251700-
SOUTHWEST MINNESOTA

CITY           SKY/WX    TMP DP  RH WIND       PRES   REMARKS
FAIRMONT       CLOUDY    28  23  80 N13       29.94R WCI  18
JACKSON        CLOUDY    30  27  86 NE14      29.94R WCI  20
LUVERNE        CLOUDY    34  32  93 N6        29.97R WCI  29
MARSHALL       CLOUDY    30  27  86 N8        30.00R WCI  23
MONTEVIDEO     CLOUDY    30  28  93 E6        30.00R WCI  24
PIPESTONE      CLOUDY    30  28  93 NE9       29.94R WCI  22
REDWOOD FALLS  CLOUDY    30  23  75 NE6       29.99R WCI  24
TRACY          CLOUDY    30  28  93 NE5       29.96R WCI  25
WINDOM         CLOUDY    27  25  93 N8        29.95R WCI  18
WORTHINGTON    CLOUDY    28  27  93 N13       29.95R WCI  18
$$

IAZ001>003-012>014-020>022-031-032-NEZ013-014-SDZ071-251700-
NORTHWEST IOWA

CITY           SKY/WX    TMP DP  RH WIND       PRES   REMARKS
ESTHERVILLE    CLOUDY    28  26  92 NE16G23   29.93R WCI  16
SIOUX CITY     CLOUDY    36  33  89 N16       29.96R
SPENCER        CLOUDY    32  28  85 N14       29.94R WCI  22
$$

ABBREVIATIONS USED IN REMARKS
   TC - TEMPERATURE IN CELSIUS
  WCI - WIND CHILL INDEX
   HX - HEAT INDEX
  VSB - VISIBILITY




USA.gov is the U.S. government's official web portal to all federal, state and local government web resources and services.